This is the latest recevied weather packets stored in our database for station/object N4DBJ. If no packets are shown the sender has not sent any weather packets the latest 10 day(s).
| Time | Temp. | Humidity | Pressure | Rain* | Wind** | Luminosity | Snow |
|---|---|---|---|---|---|---|---|
| 1777660013 | 18.89° C | 54% | 1013.3 hPa | 0 mm | - | 291 W/m² | - |
| 1777659709 | 18.89° C | 55% | 1013.3 hPa | 0 mm | - | 763 W/m² | - |
| 1777659407 | 18.33° C | 52% | 1013.2 hPa | 0 mm | - | 571 W/m² | - |
| 1777659104 | 18.33° C | 53% | 1013.4 hPa | 0 mm | - | 717 W/m² | - |
| 1777658802 | 18.89° C | 48% | 1013.3 hPa | 0 mm | - | 755 W/m² | - |
| 1777658497 | 18.89° C | 49% | 1013.2 hPa | 0 mm | - | 683 W/m² | - |
| 1777658194 | 18.33° C | 56% | 1013.5 hPa | 0 mm | - | 718 W/m² | - |
| 1777657892 | 18.89° C | 57% | 1013.3 hPa | 0 mm | - | 752 W/m² | - |
| 1777657588 | 18.89° C | 53% | 1013.4 hPa | 0 mm | - | 764 W/m² | - |
| 1777657286 | 18.33° C | 55% | 1013.5 hPa | 0 mm | - | 728 W/m² | - |
| 1777656983 | 17.78° C | 51% | 1013.5 hPa | 0 mm | - | 753 W/m² | - |
| 1777656680 | 18.33° C | 50% | 1013.3 hPa | 0 mm | - | 737 W/m² | - |
| 1777656375 | 18.33° C | 57% | 1013.6 hPa | 0 mm | - | 765 W/m² | - |
| 1777656071 | 18.33° C | 57% | 1013.6 hPa | 0 mm | - | 726 W/m² | - |
| 1777655767 | 18.89° C | 54% | 1013.6 hPa | 0 mm | - | 717 W/m² | - |
| 1777655464 | 17.78° C | 58% | 1013.6 hPa | 0 mm | - | 546 W/m² | - |
| 1777655161 | 17.78° C | 53% | 1013.5 hPa | 0 mm | - | 705 W/m² | - |
| 1777654858 | 17.78° C | 57% | 1013.8 hPa | 0 mm | - | 676 W/m² | - |
| 1777654555 | 17.78° C | 57% | 1013.8 hPa | 0 mm | - | 652 W/m² | - |
| 1777654253 | 17.78° C | 58% | 1013.5 hPa | 0 mm | - | 768 W/m² | - |
| 1777653950 | 17.78° C | 62% | 1013.7 hPa | 0 mm | - | 818 W/m² | - |
| 1777653647 | 17.78° C | 61% | 1013.9 hPa | 0 mm | - | 746 W/m² | - |
| 1777653343 | 17.78° C | 64% | 1013.7 hPa | 0 mm | - | 766 W/m² | - |
| 1777653040 | 17.78° C | 60% | 1013.6 hPa | 0 mm | - | 814 W/m² | - |
| 1777652737 | 17.78° C | 63% | 1013.6 hPa | 0 mm | - | 842 W/m² | - |
* Rain latest hour (hover to see other rain measurements)
** Current wind speed in m/s (hover to see current wind gust speed)